Simultaneous Nadir Overpasses (SNOs) Predictions

Prediction of SNOs between METOP-A and NOAA-19 Satellite Orbit:

Table of predicted SNOs for the next 14.0 days since TLE Epoch: 10/10/2014
Index Date (METOP-A) Time (METOP-A) Lat,Lon (METOP-A) SZA (METOP-A ) Date (NOAA-19) Time (NOAA-19) Lat,Lon (NOAA-19) SZA (NOAA-19 ) Distance(km) Time Diff (sec)
1 10/20/2014 01:10:04 -74.85, -20.61 94.99 10/20/2014 01:08:56 -74.87, -23.32 94.96 78.62 68
2 10/20/2014 02:00:54 74.37, 145.43 84.55 10/20/2014 01:59:52 74.36, 145.32 84.54 3.28 62
3 10/20/2014 02:51:36 -74.35, -47.31 95.47 10/20/2014 02:50:48 -74.33, -47.33 95.49 2.00 48
4 10/20/2014 03:42:17 74.30, 119.90 84.50 10/20/2014 03:41:54 74.30, 119.98 84.50 2.49 23
5 10/20/2014 04:32:58 -74.33, -72.71 95.47 10/20/2014 04:32:51 -74.31, -72.80 95.48 3.03 7
6 10/20/2014 05:23:39 74.28, 94.51 84.50 10/20/2014 05:23:57 74.28, 94.52 84.51 0.42 18
7 10/20/2014 06:14:21 -74.26, -98.23 95.51 10/20/2014 06:14:53 -74.25, -98.13 95.52 2.89 32
8 10/20/2014 07:05:01 74.26, 69.11 84.51 10/20/2014 07:06:00 74.26, 69.05 84.51 1.97 59
9 10/20/2014 07:55:43 -74.23,-123.62 95.51 10/20/2014 07:56:56 -74.23,-123.60 95.51 0.71 73




NCC Satellite Simultaneous Nadir Overpasses (SNOs) Prediction Service
